Flag for Poland Weather past 2 weeks in Gdańsk, Poland

36 °F

Passing clouds.

Feels Like: 30 °F
Forecast: 30 / 39 °F
Wind: 7 mph from South

Location: Gdansk-Rebiechowo

Current Time: Nov 27, 2015 at 8:41:59 PM

Latest Report: Nov 27, 2015 at 8:00 PM

Visibility: N/A

Pressure: 29.98 "Hg

Humidity: 75%

Dew point: 28 °F

Location of GdańskLocation

Historic Weather in Gdańsk — Graph


Gdańsk temperature yesterday

Maximum temperature yesterday: 37 °F (at 12:00 PM)
Minimum temperature yesterday: 32 °F (at 12:00 AM)
Average temperature yesterday: 35 °F

Past Weeks' High & Low Weather Summary

High52 °F (Nov 18, 2:00 AM)100% (Nov 13, 9:30 AM)30.18 "Hg (Nov 13, 9:30 AM)
Low27 °F (Nov 25, 7:00 AM)65% (Nov 21, 1:30 PM)29.27 "Hg (Nov 18, 6:00 AM)
Average40 °F89%29.73 "Hg
* Reported Nov 12 7:00 PM — Nov 27 7:30 PM, Gdańsk, Weather by CustomWeather, © 2015

Note: Actual official high and low records may vary slightly from our data, if they occured in-between our weather recording intervals... More about our weather records


Gdańsk weather history for previous 24 hours

Time TempWeatherWind HumidityBarometerVisibility
7:30 PM
Fri, Nov 27
36 °FPassing clouds.7 mph81%29.98 "HgN/A
7:00 PM36 °FPassing clouds.6 mph81%29.98 "HgN/A
6:30 PM36 °FPassing clouds.6 mph81%29.98 "HgN/A
6:00 PM36 °FPassing clouds.5 mph81%30.01 "HgN/A
5:30 PM36 °FPassing clouds.6 mph81%30.01 "HgN/A
5:00 PM36 °FPassing clouds.6 mph81%30.01 "HgN/A
4:30 PM36 °FPassing clouds.5 mph81%30.01 "HgN/A
4:00 PM37 °FPassing clouds.5 mph75%30.01 "HgN/A
3:30 PM37 °FPassing clouds.7 mph75%30.01 "HgN/A
3:00 PM39 °FPassing clouds.7 mph70%30.01 "HgN/A
2:30 PM41 °FPassing clouds.8 mph70%30.01 "HgN/A
2:00 PM41 °FPassing clouds.8 mph70%30.01 "HgN/A
1:30 PM41 °FPassing clouds.9 mph70%30.01 "HgN/A
1:00 PM41 °FPassing clouds.10 mph70%30.04 "HgN/A
12:30 PM41 °FPassing clouds.8 mph70%30.04 "HgN/A
12:00 PM39 °FPassing clouds.8 mph75%30.04 "HgN/A
11:30 AM39 °FPassing clouds.8 mph75%30.04 "HgN/A
11:00 AM39 °FPassing clouds.8 mph81%30.04 "HgN/A
10:30 AM37 °FPassing clouds.8 mph87%30.07 "HgN/A
10:00 AM37 °FPassing clouds.8 mph87%30.07 "HgN/A
9:30 AM36 °FClear.6 mph93%30.07 "Hg5 mi
9:00 AM36 °FClear.6 mph87%30.07 "Hg4 mi
7:30 AM34 °FFog.3 mph93%30.07 "Hg3 mi
7:00 AM34 °FFog.3 mph93%30.07 "Hg3 mi
6:30 AM34 °FFog.5 mph100%30.04 "Hg3 mi
6:00 AM32 °FIce fog.3 mph100%30.07 "Hg2 mi
5:30 AM32 °FIce fog.2 mph100%30.07 "Hg2 mi
5:00 AM32 °FIce fog.1 mph100%30.07 "Hg2 mi
4:30 AM32 °FIce fog.2 mph100%30.07 "Hg2 mi
4:00 AM34 °FFog.3 mph93%30.07 "Hg2 mi
3:30 AM32 °FIce fog.3 mph100%30.07 "Hg2 mi
3:00 AM32 °FIce fog.3 mph100%30.07 "Hg2 mi
2:30 AM32 °FIce fog.3 mph100%30.07 "Hg2 mi
2:00 AM34 °FFog.5 mph93%30.07 "Hg2 mi
1:30 AM34 °FFog.7 mph93%30.07 "Hg2 mi
1:00 AM34 °FFog.7 mph93%30.07 "Hg2 mi
12:30 AM34 °FFog.3 mph93%30.07 "Hg2 mi
12:00 AM34 °FFog.2 mph93%30.07 "Hg2 mi
11:00 PM
Thu, Nov 26
36 °FFog.2 mph93%30.07 "Hg2 mi
10:30 PM36 °FFog.2 mph93%30.07 "Hg2 mi
10:00 PM36 °FFog.2 mph93%30.07 "Hg2 mi
9:30 PM36 °FFog.1 mph93%30.04 "Hg2 mi
9:00 PM34 °FFog.2 mph100%30.04 "Hg2 mi
8:30 PM34 °FFog.3 mph93%30.04 "Hg2 mi
8:00 PM34 °FFog.3 mph93%30.04 "Hg2 mi
Weather by CustomWeather, © 2015

See weather overviewHow to use our weather pages